sat.trackr.live / text

‹ back to catalog

KUIPER-00620

NORAD 69295 · 2026-118AE

PAYLOAD ACTIVE UNKNOWN

§ Identity

Operator
Country
US
Launch date
2026-05-29
Launch site
AFETR
Launch vehicle
Mass (kg)
RCS (m²)

External: N2YO · Heavens-Above · Gunter

§ Orbital elements

Epoch: 2026-09-20T04:40:48.786240Z

Period
97.30 min
Inclination
51.9048°
Eccentricity
0.0000301
Mean motion
14.79928149 rev/d
Perigee alt
629.3 km
Apogee alt
629.8 km
Semi-major
7,007.7 km
B*
-2.8008e-5
RAAN
333.0565°
Arg perigee
56.2812°
Mean anomaly
303.8179°
Rev number
1,833

§ Raw data

KUIPER-006201 69295U 26118AE  26263.19500910 -.00000434  00000+0 -28008-4 0  99972 69295  51.9048 333.0565 0000301  56.2812 303.8179 14.79928149 18333

JSON: /api/v1/satellites/69295 · /tle

For live sub-satellite position, see the globe view (requires WebGL).

§ Visibility from observer

Set your observer location to see the next 7 days of passes ≥ 10°. The values pass through the URL so the page stays shareable.

No JS? Fill the form by hand. The geolocation button needs JavaScript.